This is the latest recevied weather packets stored in our database for station/object N9BLE. If no packets are shown the sender has not sent any weather packets the latest 10 day(s).
| Time | Temp. | Humidity | Pressure | Rain* | Wind** | Luminosity | Snow |
|---|---|---|---|---|---|---|---|
| 1777956917 | 13.33° C | 49% | 1006.2 hPa | 0 mm | - | 0 W/m² | - |
| 1777956615 | 13.33° C | 49% | 1005.9 hPa | 0 mm | - | 0 W/m² | - |
| 1777956312 | 13.89° C | 48% | 1005.6 hPa | 0 mm | - | 0 W/m² | - |
| 1777956008 | 13.89° C | 49% | 1005.7 hPa | 0 mm | - | 0 W/m² | - |
| 1777955704 | 13.89° C | 51% | 1005.8 hPa | 0 mm | - | 0 W/m² | - |
| 1777955401 | 13.89° C | 50% | 1005.8 hPa | 0 mm | - | 0 W/m² | - |
| 1777955097 | 14.44° C | 51% | 1005.9 hPa | 0 mm | - | 0 W/m² | - |
| 1777954794 | 14.44° C | 51% | 1005.9 hPa | 0 mm | - | 0 W/m² | - |
| 1777954491 | 14.44° C | 51% | 1005.9 hPa | 0 mm | - | 0 W/m² | - |
| 1777954188 | 15° C | 50% | 1005.9 hPa | 0 mm | - | 0 W/m² | - |
| 1777953886 | 15° C | 50% | 1005.9 hPa | 0 mm | - | 0 W/m² | - |
| 1777953583 | 15° C | 49% | 1005.9 hPa | 0 mm | - | 0 W/m² | - |
| 1777953279 | 15° C | 50% | 1005.8 hPa | 0 mm | - | 0 W/m² | - |
| 1777952976 | 15.56° C | 49% | 1005.7 hPa | 0 mm | - | 0 W/m² | - |
| 1777952672 | 15.56° C | 48% | 1005.5 hPa | 0 mm | - | 0 W/m² | - |
| 1777952370 | 16.11° C | 48% | 1005.7 hPa | 0 mm | - | 0 W/m² | - |
| 1777952066 | 16.67° C | 48% | 1005.4 hPa | 0 mm | - | 0 W/m² | - |
| 1777951764 | 16.67° C | 46% | 1005.4 hPa | 0 mm | - | 0 W/m² | - |
| 1777951461 | 16.67° C | 46% | 1005.3 hPa | 0 mm | - | 0 W/m² | - |
| 1777951158 | 17.22° C | 45% | 1005.2 hPa | 0 mm | - | 0 W/m² | - |
| 1777950855 | 17.22° C | 47% | 1005.2 hPa | 0 mm | - | 0 W/m² | - |
| 1777950552 | 17.22° C | 48% | 1005.2 hPa | 0 mm | - | 0 W/m² | - |
| 1777950248 | 17.22° C | 50% | 1005.2 hPa | 0 mm | - | 0 W/m² | - |
| 1777949943 | 17.22° C | 53% | 1005.1 hPa | 0 mm | - | 0 W/m² | - |
| 1777949641 | 17.78° C | 55% | 1005.2 hPa | 0 mm | - | 0 W/m² | - |
* Rain latest hour (hover to see other rain measurements)
** Current wind speed in m/s (hover to see current wind gust speed)